Location: Perryvale
(54.4667°N, 113.3833°W)
Time: 20:46:07
(UTC+00:00)

Transit 2A - Pass Details

Date: 28 May 2024
Orbit: 592 x 959 km, 66.7° (Epoch: 19 June)

Event Time Altitude Azimuth Distance (km) Brightness Sun altitude
Rises 08:07:11 0° 277° (W) 3,117 9.2 -13.6°
Reaches altitude 10° 08:09:49 10° 291° (WNW) 2,262 8.6 -13.5°
Maximum altitude 08:14:08 25° 347° (NNW) 1,547 8.4 -13.4°
Drops below altitude 10° 08:18:48 10° 42° (NE) 2,474 9.6 -13.3°
Sets 08:21:50 0° 55° (NE) 3,475 10.2 -13.2°
